Change the Weather History Date:

Friday, July 12, 2013

  Actual Average Record
Temperature  
Mean Temperature 71 °F 68 °F  
Max Temperature 89 °F 86 °F 98 °F (1953)
Min Temperature 53 °F 50 °F 40 °F (1965)
Degree Days  
Heating Degree Days 0 1  
Month to date heating degree days 0 16  
Since 1 June heating degree days 100 169  
Since 1 July heating degree days 0 16  
Cooling Degree Days 6 4  
Month to date cooling degree days 97 39  
Year to date cooling degree days 170 71  
Since 1 June cooling degree days 166 69  
Growing Degree Days 20 (Base 50)    
Moisture  
Dew Point 47 °F    
Average Humidity 55    
Maximum Humidity 93    
Minimum Humidity 17    
Precipitation  
Precipitation 0.00 in 0.02 in 0.39 in (1992)
Month to date precipitation 0.08 0.19  
Year to date precipitation 2.02 6.13  
Sea Level Pressure  
Sea Level Pressure 29.90 in    
Wind  
Wind Speed 8 mph (SSW)    
Max Wind Speed 21 mph    
Max Gust Speed 32 mph    
Visibility 10 miles    
Events      
T = Trace of Precipitation, MM = Missing Value Source: NWS Daily Summary

Daily Weather History Graph

Daily Weather History Graph

Search for Another Location

Airport or City:

Trip Planner

Search our weather history database for the weather conditions in past years. The results will help you decide how hot, cold, wet, or windy it might be!

Date:

Astronomy

Jul. 12, 2013 Rise Set
Actual Time 5:58 AM MDT 9:08 PM MDT
Civil Twilight 5:23 AM MDT 9:43 PM MDT
Nautical Twilight 4:39 AM MDT 10:28 PM MDT
Astronomical Twilight 3:44 AM MDT 11:22 PM MDT
Moon 10:28 AM MDT (7/12) 11:10 PM MDT (7/12)
Length of Visible Light 16h 19m
Length of Day
15h 09m
Waxing Crescent, 18% of the Moon is Illuminated
Jul 12
Waxing Crescent
Jul 15
First Quarter
Jul 22
Full
Jul 29
Last Quarter
Aug 6
New

Hourly Weather History & Observations

Time (MDT) Temp. Dew Point Humidity Pressure Visibility Wind Dir Wind Speed Gust Speed Precip Events Conditions
12:53 AM 59.0 °F 54.0 °F 83% 29.92 in 10.0 mi Calm Calm - N/A   Clear
1:53 AM 62.1 °F 51.1 °F 67% 29.90 in 10.0 mi Calm Calm - N/A   Clear
2:53 AM 55.0 °F 51.1 °F 86% 29.93 in 10.0 mi North 4.6 mph - N/A   Clear
3:53 AM 55.0 °F 52.0 °F 89% 29.94 in 10.0 mi North 5.8 mph - N/A   Clear
4:53 AM 55.9 °F 51.1 °F 84% 29.95 in 10.0 mi Calm Calm - N/A   Clear
5:53 AM 53.1 °F 50.0 °F 89% 29.97 in 10.0 mi Calm Calm - N/A   Clear
6:53 AM 54.0 °F 51.1 °F 90% 29.98 in 10.0 mi Calm Calm - N/A   Clear
7:53 AM 59.0 °F 54.0 °F 83% 29.98 in 10.0 mi Calm Calm - N/A   Clear
8:53 AM 64.9 °F 55.0 °F 70% 29.97 in 10.0 mi NNW 3.5 mph - N/A   Clear
9:53 AM 70.0 °F 51.1 °F 51% 29.95 in 10.0 mi Calm Calm - N/A   Clear
10:53 AM 73.0 °F 51.1 °F 46% 29.96 in 10.0 mi Variable 3.5 mph - N/A   Clear
11:53 AM 77.0 °F 51.1 °F 40% 29.93 in 10.0 mi WSW 10.4 mph - N/A   Clear
12:53 PM 80.1 °F 50.0 °F 35% 29.91 in 10.0 mi SW 12.7 mph 17.3 mph N/A   Partly Cloudy
1:53 PM 82.9 °F 46.0 °F 27% 29.88 in 10.0 mi WSW 11.5 mph - N/A   Clear
2:53 PM 84.9 °F 42.1 °F 22% 29.88 in 10.0 mi South 10.4 mph - N/A   Scattered Clouds
3:53 PM 88.0 °F 37.0 °F 16% 29.86 in 10.0 mi SSW 18.4 mph 25.3 mph N/A   Scattered Clouds
4:53 PM 88.0 °F 37.9 °F 17% 29.84 in 10.0 mi SSW 20.7 mph 26.5 mph N/A   Clear
5:53 PM 86.0 °F 37.9 °F 18% 29.83 in 10.0 mi South 20.7 mph 24.2 mph N/A   Clear
6:53 PM 84.9 °F 39.9 °F 20% 29.83 in 10.0 mi South 16.1 mph 21.9 mph N/A   Clear
7:53 PM 82.9 °F 43.0 °F 24% 29.83 in 10.0 mi South 11.5 mph 20.7 mph N/A   Clear
8:53 PM 78.1 °F 44.1 °F 30% 29.83 in 10.0 mi South 12.7 mph - N/A   Clear
9:53 PM 75.0 °F 44.1 °F 33% 29.84 in 10.0 mi SSE 10.4 mph - N/A   Clear
10:53 PM 73.9 °F 45.0 °F 35% 29.84 in 10.0 mi South 9.2 mph - N/A   Clear
11:53 PM 62.1 °F 50.0 °F 65% 29.86 in 10.0 mi Calm Calm - N/A   Clear